TimeCDT,TemperatureF,Dew PointF,Humidity,Sea Level PressureIn,VisibilityMPH,Wind Direction,Wind SpeedMPH,Gust SpeedMPH,PrecipitationIn,Events,Conditions,WindDirDegrees,DateUTC
12:15 AM,79.7,73.4,81,29.95,10.0,SE,9.2,-,N/A,,Scattered Clouds,130,2013-06-16 05:15:00
12:35 AM,79.3,73.6,82,29.95,10.0,SE,8.1,-,N/A,,Scattered Clouds,140,2013-06-16 05:35:00
12:55 AM,79.3,73.6,82,29.94,10.0,SE,8.1,-,N/A,,Clear,140,2013-06-16 05:55:00
1:15 AM,79.2,73.6,83,29.95,10.0,SE,8.1,-,N/A,,Clear,140,2013-06-16 06:15:00
1:35 AM,79.0,73.4,83,29.94,10.0,SE,9.2,-,N/A,,Clear,140,2013-06-16 06:35:00
1:55 AM,79.0,73.4,83,29.93,10.0,SE,8.1,-,N/A,,Clear,140,2013-06-16 06:55:00
2:15 AM,79.0,73.6,83,29.93,10.0,SE,8.1,-,N/A,,Clear,130,2013-06-16 07:15:00
2:35 AM,79.0,73.6,83,29.93,10.0,SE,6.9,-,N/A,,Clear,140,2013-06-16 07:35:00
2:55 AM,78.8,73.8,84,29.92,10.0,SE,8.1,-,N/A,,Clear,130,2013-06-16 07:55:00
3:15 AM,78.8,73.8,84,29.92,10.0,SE,6.9,-,N/A,,Clear,140,2013-06-16 08:15:00
3:35 AM,78.8,73.9,85,29.92,10.0,SE,8.1,-,N/A,,Clear,140,2013-06-16 08:35:00
3:55 AM,78.8,74.1,85,29.92,10.0,SE,8.1,-,N/A,,Clear,140,2013-06-16 08:55:00
4:15 AM,78.8,73.9,85,29.92,10.0,SE,6.9,-,N/A,,Clear,140,2013-06-16 09:15:00
4:35 AM,78.8,74.1,85,29.91,10.0,SE,8.1,-,N/A,,Clear,140,2013-06-16 09:35:00
4:55 AM,78.4,73.9,86,29.91,10.0,SE,6.9,-,N/A,,Clear,140,2013-06-16 09:55:00
5:15 AM,78.4,74.3,87,29.91,10.0,SE,6.9,-,N/A,,Clear,130,2013-06-16 10:15:00
5:35 AM,78.4,74.3,87,29.91,7.0,SE,6.9,-,N/A,,Scattered Clouds,140,2013-06-16 10:35:00
5:55 AM,78.4,74.3,87,29.91,10.0,SE,6.9,-,N/A,,Scattered Clouds,140,2013-06-16 10:55:00
6:15 AM,78.6,74.5,87,29.92,7.0,SE,6.9,-,N/A,,Scattered Clouds,140,2013-06-16 11:15:00
6:35 AM,78.4,74.3,87,29.93,7.0,SE,5.8,-,N/A,,Scattered Clouds,130,2013-06-16 11:35:00
6:55 AM,78.8,74.5,87,29.93,7.0,SE,8.1,-,N/A,,Scattered Clouds,140,2013-06-16 11:55:00
7:15 AM,79.0,74.7,87,29.93,5.0,SSE,6.9,-,N/A,,Scattered Clouds,150,2013-06-16 12:15:00
7:35 AM,79.7,74.8,85,29.93,5.0,SSE,8.1,-,N/A,,Haze,150,2013-06-16 12:35:00
7:55 AM,80.6,75.2,84,29.94,5.0,SSE,9.2,-,N/A,,Haze,150,2013-06-16 12:55:00
8:15 AM,82.4,75.4,79,29.94,5.0,SSE,10.4,-,N/A,,Haze,150,2013-06-16 13:15:00
8:35 AM,83.1,75.4,77,29.95,5.0,SSE,12.7,17.3,N/A,,Haze,160,2013-06-16 13:35:00
8:55 AM,84.0,75.4,75,29.96,5.0,South,15.0,19.6,N/A,,Haze,170,2013-06-16 13:55:00
9:15 AM,86.9,75.4,68,29.96,5.0,South,15.0,21.9,N/A,,Haze,170,2013-06-16 14:15:00
9:35 AM,85.5,73.4,67,29.96,5.0,South,16.1,-,N/A,,Haze,170,2013-06-16 14:35:00
9:55 AM,88.7,73.0,60,29.96,7.0,South,18.4,23.0,N/A,,Scattered Clouds,170,2013-06-16 14:55:00
10:15 AM,89.4,71.6,56,29.96,7.0,South,20.7,25.3,N/A,,Scattered Clouds,170,2013-06-16 15:15:00
10:35 AM,90.5,71.1,53,29.96,7.0,SSE,17.3,24.2,N/A,,Clear,160,2013-06-16 15:35:00
10:55 AM,91.9,70.0,48,29.96,7.0,SSE,17.3,25.3,N/A,,Clear,160,2013-06-16 15:55:00
11:15 AM,92.5,69.4,47,29.96,7.0,SSE,19.6,25.3,N/A,,Clear,160,2013-06-16 16:15:00
11:35 AM,93.4,68.5,44,29.96,7.0,South,18.4,24.2,N/A,,Clear,170,2013-06-16 16:35:00
11:55 AM,94.3,66.9,41,29.96,5.0,SSE,18.4,25.3,N/A,,Haze,160,2013-06-16 16:55:00
12:15 PM,95.2,66.0,38,29.96,7.0,South,24.2,32.2,N/A,,Scattered Clouds,170,2013-06-16 17:15:00
12:35 PM,95.9,66.2,38,29.96,7.0,South,20.7,26.5,N/A,,Scattered Clouds,180,2013-06-16 17:35:00
12:55 PM,95.4,66.7,39,29.95,7.0,SSE,18.4,26.5,N/A,,Scattered Clouds,160,2013-06-16 17:55:00
1:15 PM,95.2,68.5,42,29.95,7.0,SSE,18.4,25.3,N/A,,Scattered Clouds,150,2013-06-16 18:15:00
1:35 PM,95.5,68.0,40,29.95,7.0,South,21.9,28.8,N/A,,Scattered Clouds,180,2013-06-16 18:35:00
1:55 PM,95.9,67.1,39,29.94,7.0,SSE,17.3,24.2,N/A,,Scattered Clouds,150,2013-06-16 18:55:00
2:35 PM,96.3,64.6,35,29.93,7.0,South,15.0,25.3,N/A,,Scattered Clouds,170,2013-06-16 19:35:00
2:55 PM,95.5,65.7,37,29.92,7.0,SE,15.0,24.2,N/A,,Clear,140,2013-06-16 19:55:00
3:15 PM,95.9,66.4,38,29.92,7.0,SSE,13.8,24.2,N/A,,Scattered Clouds,160,2013-06-16 20:15:00
3:35 PM,95.7,65.5,37,29.91,7.0,SSE,13.8,20.7,N/A,,Scattered Clouds,160,2013-06-16 20:35:00
3:55 PM,95.9,66.2,38,29.90,7.0,SE,13.8,24.2,N/A,,Scattered Clouds,140,2013-06-16 20:55:00
4:15 PM,96.3,65.3,36,29.90,7.0,SSE,12.7,20.7,N/A,,Clear,150,2013-06-16 21:15:00
4:35 PM,96.4,63.5,34,29.89,7.0,SSE,13.8,21.9,N/A,,Clear,150,2013-06-16 21:35:00
4:55 PM,96.1,63.1,34,29.89,7.0,SSE,12.7,24.2,N/A,,Clear,150,2013-06-16 21:55:00
5:15 PM,96.3,63.7,34,29.89,7.0,SE,17.3,21.9,N/A,,Clear,140,2013-06-16 22:15:00
5:35 PM,95.7,63.3,34,29.88,7.0,SE,12.7,21.9,N/A,,Clear,140,2013-06-16 22:35:00
5:55 PM,95.0,64.9,37,29.89,7.0,SE,12.7,23.0,N/A,,Clear,140,2013-06-16 22:55:00
6:35 PM,93.2,66.0,41,29.90,7.0,SE,13.8,21.9,N/A,,Clear,140,2013-06-16 23:35:00
7:15 PM,90.5,67.6,47,29.91,7.0,SE,13.8,20.7,N/A,,Clear,140,2013-06-17 00:15:00
7:35 PM,89.2,68.7,51,29.91,7.0,SE,11.5,20.7,N/A,,Clear,140,2013-06-17 00:35:00
7:55 PM,88.0,69.4,54,29.91,10.0,SE,16.1,23.0,N/A,,Clear,140,2013-06-17 00:55:00
8:15 PM,86.4,70.3,59,29.91,10.0,SE,15.0,21.9,N/A,,Clear,140,2013-06-17 01:15:00
8:35 PM,85.3,70.7,62,29.91,10.0,SE,15.0,20.7,N/A,,Clear,140,2013-06-17 01:35:00
8:55 PM,84.4,71.6,65,29.91,10.0,SE,13.8,19.6,N/A,,Clear,140,2013-06-17 01:55:00
9:15 PM,83.7,72.1,68,29.92,10.0,SSE,11.5,-,N/A,,Clear,150,2013-06-17 02:15:00
9:35 PM,82.9,72.5,71,29.92,10.0,SE,10.4,-,N/A,,Scattered Clouds,140,2013-06-17 02:35:00
9:55 PM,82.6,73.2,73,29.93,10.0,SE,12.7,20.7,N/A,,Scattered Clouds,140,2013-06-17 02:55:00
10:15 PM,82.4,73.6,75,29.93,10.0,SE,10.4,-,N/A,,Overcast,140,2013-06-17 03:15:00
10:35 PM,82.4,73.9,75,29.94,10.0,SE,10.4,-,N/A,,Overcast,140,2013-06-17 03:35:00
11:15 PM,82.2,74.3,77,29.96,10.0,SSE,12.7,18.4,N/A,,Overcast,150,2013-06-17 04:15:00
11:35 PM,81.9,74.5,78,29.96,10.0,SSE,11.5,16.1,N/A,,Overcast,150,2013-06-17 04:35:00
11:55 PM,81.9,74.5,78,29.96,10.0,SSE,15.0,19.6,N/A,,Mostly Cloudy,150,2013-06-17 04:55:00